• In Russia
  • List of Countries
  • For 7 days
  • Water Temperature
  • Satellite Maps
  • Weather Map
  • Weather Widgets
  • user-avatar
    Login

    Hourly Weather Solden

    Today, 18 April, Thursday

    Time Temperature Precipitation Wind Pressure Humidity
    00:00 -2°C° 0 mm 1 mps 583 mmHg 84%
    01:00 -2°C° 0 mm 1 mps 583 mmHg 83%
    02:00 -2°C° 0 mm 1 mps 583 mmHg 84%
    03:00 -2°C° 0 mm 1 mps 583 mmHg 86%
    04:00 -2°C° 0 mm 1 mps 583 mmHg 88%
    05:00 -2°C° 0 mm 1 mps 584 mmHg 86%
    06:00 -2°C° 0 mm 0 mps 584 mmHg 85%
    07:00 0°C° 0 mm 1 mps 585 mmHg 81%
    08:00 +2°C° 0 mm 1 mps 586 mmHg 78%
    09:00 +3°C° 0 mm 1 mps 586 mmHg 75%
    10:00 +4°C° 0 mm 1 mps 587 mmHg 72%
    11:00 +5°C° 0.1 mm 1 mps 587 mmHg 70%
    12:00 +4°C° 0.1 mm 2 mps 587 mmHg 68%
    13:00 +5°C° 0.1 mm 2 mps 587 mmHg 66%
    14:00 +5°C° 0.2 mm 2 mps 587 mmHg 67%
    15:00 +4°C° 0.2 mm 2 mps 587 mmHg 68%
    16:00 +4°C° 0.2 mm 2 mps 587 mmHg 69%
    17:00 +3°C° 0.2 mm 2 mps 586 mmHg 75%
    18:00 +2°C° 0.2 mm 1 mps 586 mmHg 81%
    19:00 +1°C° 0.2 mm 1 mps 585 mmHg 87%
    20:00 0°C° 0.2 mm 1 mps 586 mmHg 89%
    21:00 0°C° 0.2 mm 1 mps 586 mmHg 92%
    22:00 -2°C° 0.2 mm 0 mps 586 mmHg 95%
    23:00 -2°C° 0.1 mm 0 mps 587 mmHg 95%

    Tomorrow, 19 April, Friday

    Time Temperature Precipitation Wind Pressure Humidity
    00:00 -2°C° 0.1 mm 0 mps 587 mmHg 95%
    01:00 -2°C° 0.1 mm 0 mps 587 mmHg 95%
    02:00 -3°C° 0 mm 0 mps 587 mmHg 94%
    03:00 -2°C° 0 mm 1 mps 587 mmHg 93%
    04:00 -2°C° 0 mm 1 mps 586 mmHg 92%
    05:00 -2°C° 0 mm 1 mps 587 mmHg 89%
    06:00 -1°C° 0 mm 1 mps 587 mmHg 85%
    07:00 0°C° 0 mm 1 mps 588 mmHg 82%
    08:00 +2°C° 0 mm 1 mps 589 mmHg 76%
    09:00 +3°C° 0 mm 1 mps 589 mmHg 71%
    10:00 +5°C° 0 mm 1 mps 590 mmHg 65%
    11:00 +6°C° 0 mm 1 mps 590 mmHg 62%
    12:00 +7°C° 0 mm 1 mps 591 mmHg 59%
    13:00 +7°C° 0 mm 1 mps 591 mmHg 56%
    14:00 +7°C° 0 mm 1 mps 591 mmHg 56%
    15:00 +7°C° 0 mm 1 mps 590 mmHg 56%
    16:00 +7°C° 0 mm 1 mps 590 mmHg 56%
    17:00 +5°C° 0 mm 1 mps 589 mmHg 62%
    18:00 +2°C° 0 mm 1 mps 588 mmHg 68%
    19:00 -1°C° 0 mm 0 mps 587 mmHg 74%
    20:00 -1°C° 0 mm 1 mps 587 mmHg 75%
    21:00 -1°C° 0 mm 1 mps 587 mmHg 76%
    22:00 -2°C° 0 mm 1 mps 587 mmHg 77%
    23:00 -2°C° 0 mm 1 mps 587 mmHg 77%

    Day after tomorrow, 20 April, Saturday

    Time Temperature Precipitation Wind Pressure Humidity
    00:00 -3°C° 0 mm 1 mps 587 mmHg 76%
    01:00 -3°C° 0 mm 1 mps 586 mmHg 76%
    02:00 -3°C° 0 mm 1 mps 586 mmHg 74%
    03:00 -3°C° 0 mm 1 mps 586 mmHg 73%
    04:00 -3°C° 0 mm 1 mps 586 mmHg 71%
    05:00 -2°C° 0 mm 1 mps 586 mmHg 67%
    06:00 -1°C° 0 mm 1 mps 587 mmHg 62%
    07:00 0°C° 0 mm 1 mps 587 mmHg 58%
    08:00 +2°C° 0 mm 1 mps 588 mmHg 53%
    09:00 +5°C° 0 mm 1 mps 589 mmHg 49%
    10:00 +7°C° 0 mm 1 mps 590 mmHg 44%
    11:00 +8°C° 0 mm 1 mps 590 mmHg 43%
    12:00 +8°C° 0 mm 1 mps 590 mmHg 43%
    13:00 +9°C° 0 mm 1 mps 590 mmHg 42%
    14:00 +9°C° 0 mm 1 mps 590 mmHg 43%
    15:00 +9°C° 0 mm 1 mps 590 mmHg 43%
    16:00 +8°C° 0 mm 1 mps 589 mmHg 43%
    17:00 +6°C° 0 mm 1 mps 588 mmHg 49%
    18:00 +3°C° 0 mm 1 mps 587 mmHg 54%
    19:00 0°C° 0 mm 0 mps 585 mmHg 60%
    20:00 0°C° 0 mm 1 mps 585 mmHg 62%
    21:00 0°C° 0 mm 1 mps 585 mmHg 65%
    22:00 -1°C° 0 mm 1 mps 585 mmHg 67%
    23:00 -1°C° 0 mm 1 mps 585 mmHg 69%

    21 April, Sunday

    Time Temperature Precipitation Wind Pressure Humidity
    00:00 -2°C° 0 mm 1 mps 585 mmHg 70%
    01:00 -2°C° 0 mm 1 mps 584 mmHg 72%
    02:00 -2°C° 0 mm 1 mps 584 mmHg 72%
    03:00 -2°C° 0 mm 1 mps 583 mmHg 73%
    04:00 -3°C° 0 mm 1 mps 583 mmHg 74%
    05:00 -1°C° 0 mm 1 mps 583 mmHg 69%
    06:00 0°C° 0 mm 1 mps 584 mmHg 65%
    07:00 +1°C° 0 mm 1 mps 584 mmHg 60%
    08:00 +3°C° 0 mm 1 mps 585 mmHg 53%
    09:00 +5°C° 0 mm 1 mps 586 mmHg 46%
    10:00 +8°C° 0 mm 1 mps 587 mmHg 39%
    11:00 +8°C° 0 mm 1 mps 587 mmHg 38%
    12:00 +8°C° 0 mm 2 mps 586 mmHg 37%
    13:00 +8°C° 0 mm 2 mps 586 mmHg 35%
    14:00 +8°C° 0 mm 2 mps 586 mmHg 37%
    15:00 +8°C° 0 mm 2 mps 585 mmHg 38%
    16:00 +7°C° 0 mm 2 mps 585 mmHg 40%
    17:00 +5°C° 0 mm 2 mps 584 mmHg 49%
    18:00 +4°C° 0 mm 1 mps 583 mmHg 59%
    19:00 +2°C° 0 mm 1 mps 582 mmHg 69%
    20:00 +1°C° 0 mm 1 mps 582 mmHg 75%
    21:00 0°C° 0 mm 1 mps 581 mmHg 81%
    22:00 -2°C° 0 mm 0 mps 581 mmHg 86%
    23:00 -2°C° 0 mm 0 mps 581 mmHg 89%

    22 April, Monday

    Time Temperature Precipitation Wind Pressure Humidity
    00:00 -1°C° 0 mm 1 mps 581 mmHg 91%
    01:00 -1°C° 0 mm 1 mps 581 mmHg 94%
    02:00 -1°C° 0 mm 1 mps 581 mmHg 94%
    03:00 -1°C° 0 mm 1 mps 580 mmHg 94%
    04:00 -2°C° 0 mm 0 mps 580 mmHg 95%
    05:00 -2°C° 0 mm 0 mps 580 mmHg 90%
    06:00 -1°C° 0 mm 0 mps 580 mmHg 84%
    07:00 0°C° 0 mm 0 mps 580 mmHg 79%
    08:00 +2°C° 0 mm 1 mps 581 mmHg 68%
    09:00 +4°C° 0 mm 1 mps 581 mmHg 57%
    10:00 +5°C° 0 mm 2 mps 582 mmHg 46%
    11:00 +6°C° 0 mm 2 mps 582 mmHg 44%
    12:00 +6°C° 0 mm 2 mps 582 mmHg 42%
    13:00 +7°C° 0 mm 2 mps 582 mmHg 41%
    14:00 +6°C° 0 mm 2 mps 581 mmHg 43%
    15:00 +6°C° 0 mm 2 mps 580 mmHg 46%
    16:00 +5°C° 0 mm 2 mps 580 mmHg 49%
    17:00 +4°C° 0.1 mm 2 mps 579 mmHg 59%
    18:00 +2°C° 0.1 mm 2 mps 578 mmHg 68%
    19:00 -1°C° 0.1 mm 2 mps 577 mmHg 78%
    20:00 +1°C° 0 mm 1 mps 577 mmHg 83%
    21:00 0°C° 0 mm 1 mps 577 mmHg 88%
    22:00 -1°C° 0 mm 1 mps 577 mmHg 93%
    23:00 -1°C° 0 mm 1 mps 576 mmHg 93%

    23 April, Tuesday

    Time Temperature Precipitation Wind Pressure Humidity
    00:00 -1°C° 0 mm 1 mps 576 mmHg 93%
    01:00 -1°C° 0 mm 1 mps 576 mmHg 92%
    02:00 -1°C° 0.1 mm 1 mps 575 mmHg 91%
    03:00 -1°C° 0.1 mm 1 mps 575 mmHg 89%
    04:00 -1°C° 0.1 mm 1 mps 575 mmHg 87%
    05:00 0°C° 0.2 mm 1 mps 575 mmHg 84%
    06:00 0°C° 0.2 mm 1 mps 575 mmHg 81%
    07:00 +1°C° 0.2 mm 1 mps 575 mmHg 78%
    08:00 +2°C° 0.2 mm 1 mps 576 mmHg 74%
    09:00 +4°C° 0.2 mm 1 mps 576 mmHg 69%
    10:00 +5°C° 0.2 mm 1 mps 577 mmHg 65%
    11:00 +6°C° 0.2 mm 1 mps 577 mmHg 64%
    12:00 +6°C° 0.2 mm 1 mps 577 mmHg 63%
    13:00 +6°C° 0.2 mm 2 mps 578 mmHg 62%
    14:00 +5°C° 0.4 mm 2 mps 577 mmHg 65%
    15:00 +6°C° 0.4 mm 1 mps 577 mmHg 68%
    16:00 +5°C° 0.4 mm 1 mps 577 mmHg 70%
    17:00 +4°C° 0.4 mm 1 mps 577 mmHg 75%
    18:00 +3°C° 0.4 mm 1 mps 577 mmHg 80%
    19:00 +2°C° 0.4 mm 1 mps 577 mmHg 84%
    20:00 +2°C° 0.2 mm 1 mps 577 mmHg 85%
    21:00 +1°C° 0.2 mm 1 mps 577 mmHg 86%
    22:00 0°C° 0.2 mm 0 mps 577 mmHg 88%
    23:00 0°C° 0.1 mm 0 mps 577 mmHg 87%
    Show more